Location: Passo di Treia
(43.2833°N, 13.3333°E)
Time: 23:31:27
(UTC+00:00)

Cosmos 1092 Rocket - Pass Details

Date: 09 December 2019
Orbit: 953 x 996 km, 83.0° (Epoch: 18 January)

Event Time Altitude Azimuth Distance (km) Brightness Sun altitude
Rises 16:27:53 0° 167° (SSE) 3,695 7.1 -10.1°
Reaches altitude 10° 16:30:29 10° 161° (SSE) 2,746 6.4 -10.5°
Maximum altitude 16:36:27 46° 90° (E) 1,295 4.3 -11.6°
Drops below altitude 10° 16:42:24 10° 19° (NNE) 2,740 6.0 -12.6°
Sets 16:45:00 0° 14° (NNE) 3,685 6.7 -13.0°
